Погода в Красной Долине

Россия / Санкт-Петербург и Ленинградская область     60°21′40″N   28°59′18″E
темп.,
°C
ветер,
м/с
пор.,
м/с
влажн.,
%
обл.,
%
осадки,
мм/ч
давл.,
гПа
погр.,
м
7 марта, вс
вс700:000з71292100 0.3 989723
03:00−4зсз5137385 0.4 989387
06:00−5зсз71268100 0.3 9881101
09:00−7зсз6117678 0.3 988650
12:00−6сз588372 0.2 989843
15:00−5зсз467479 0.2 991559
18:00−6сз377920 0.0 994275
21:00−8ссз5128543 0.0 997479
8 марта, пн
пн800:00−8с51190100 0.1 999679
03:00−10с61287100 0.1 1003631
06:00−12с51189100 0.1 1006506
09:00−14с5108891 0.1 1009377
12:00−11с478242 0.0 1012432
15:00−9с467729 0.0 1014578
18:00−10с36832 0.0 1015365
21:00−14с35931 0.0 1017113
9 марта, вт
вт900:00−16ссв23940 0.0 101832
03:00−17ссв22940 0.0 101826
06:00−17всв22954 0.0 101928
09:00−16в359122 0.0 1020168
12:00−13вюв4686100 0.0 1020421
15:00−12вюв4778100 0.0 1021403
18:00−13в5976100 0.0 1020409
21:00−18в498253 0.0 1022220
10 марта, ср
ср1000:00−19в49870 0.0 1023222
03:00−19в48880 0.0 1024205
06:00−19в48860 0.0 1025203
09:00−17в48783 0.0 1026197
12:00−12в476784 0.0 1026319
15:00−9вюв466284 0.0 1026512
18:00−11вюв477341 0.0 1025245
21:00−15вюв498620 0.0 1025179
11 марта, чт
чт1100:00−15вюв48900 0.0 1024164
03:00−16вюв49900 0.0 1022164
06:00−16вюв59850 0.0 1020196
09:00−15вюв611800 0.0 1018293
12:00−12юв610830 0.0 1015402
15:00−9юв6108432 0.0 1010472
18:00−8юв7138795 0.0 1006466
21:00−6юв8168897 0.0 1000564